Location: Neuvy Saint Sepulchre
(46.5953°N, 1.8122°E)
Time: 13:31:05
(UTC+01:00)

Envisat - Pass Details

Date: 23 October 2021
Orbit: 764 x 766 km, 98.2° (Epoch: 29 November)

Event Time Altitude Azimuth Distance (km) Brightness Sun altitude
Rises 06:54:17 0° 15° (NNE) 3,244 6.4 -15.6°
Reaches altitude 10° 06:56:37 10° 18° (NNE) 2,313 5.7 -15.2°
Maximum altitude 07:01:42 69° 102° (ESE) 818 3.3 -14.4°
Drops below altitude 10° 07:06:44 10° 186° (S) 2,294 5.4 -13.5°
Sets 07:09:02 0° 189° (S) 3,215 6.2 -13.1°
